Location: Observatorio del Centro Ecologico de Sonora
(29.0667°N, 110.9333°W)
Time: 00:02:51
(UTC-07:00)

ISS - Visible Passes

Search period start: 26 September 2016 00:00
Search period end: 06 October 2016 00:00
Orbit: 401 x 409 km, 51.6° (Epoch: 26 September)

Date Brightness Start Highest point End Pass type
(mag) Time Alt. Az. Time Alt. Az. Time Alt. Az.
26 Sep -1.1 04:24:40 21° SE 04:24:40 21° SE 04:25:54 10° SE visible
26 Sep -3.1 19:18:22 10° SSW 19:21:29 47° SE 19:22:15 38° E visible
27 Sep -1.1 20:03:16 10° W 20:05:54 22° NW 20:06:00 22° NW visible
28 Sep -2.4 19:10:35 10° WSW 19:13:44 47° NW 19:16:47 11° NNE visible
30 Sep -0.6 19:03:48 10° W 19:06:06 18° NW 19:08:24 10° N visible
